www.pogodaiklimat.ru

Погода и климат >> Архив погоды >> Россия >> Иркутская область >> Хомутово


ПОГОДА в Хомутово

  • Прогноз погоды в Хомутово
  • Монитор погоды в Хомутово

АРХИВ ПОГОДЫ в Хомутово

Время (UTC), дата Ветер
(напр.,м/с)
 
Видим.   Явления Облачность Т
(С)
Тd
(С)
f
(%)
Тe
(С)
Тes
(С)
Комфортность P
(гПа)
Po
(гПа)
Тmin
(С)
Tmax
(С)
R
(мм)
R24
(мм)
S
(см)
18 10.09 З 1 н/о слаб. ливневой дождь 10/8 600 м
[Cb cap Ac As]
+11.4 +10.3 93 +11 +11 1014.2 961.0
21 10.09 С 2 н/о слаб. ливневой дождь 10/10 600 м
[Cb cap]
+11.3 +9.9 91 +10 +10 1014.6 961.3
00 11.09 С 1 20 км в посл. час ливневой дождь 10/10 600 м
[Cb cap]
+11.0 +9.4 90 +11 +11 1015.1 961.7 +10.9 2
03 11.09 С 2 20 км в посл. час ливневой дождь 10/10 600 м
[Cb cap]
+11.2 +9.3 88 +10 +10 1014.3 961.0 +10.9
06 11.09 СВ 5 50 км в посл. час ливневой дождь 10/10 600 м
[Cb cap]
+11.9 +9.0 82 +9 +9 1011.0 958.0
09 11.09 С 4 10 км ливневой дождь 10/10 600 м
[Cb cap]
+11.3 +9.6 89 +9 +9 1009.7 956.6
12 11.09 С 2 4000 м ливневой дождь 10/10 600 м
[Cb cap]
+9.0 +8.1 94 +7 +7 1012.0 958.4 +12.1 8
15 11.09 СЗ 3 н/о ливневой дождь 10/10 600 м
[Cb cap]
+8.8 +7.8 93 +6 +6 1012.7 959.0
18 11.09 З 2 н/о слаб. ливневой дождь 10/6 600 м
[Cb cap Ac trans]
+8.1 +6.8 91 +6 +6 1012.4 958.6
21 11.09 ЮЗ 1 н/о {ливн. осадки} 8/3 600 м
[Cb cap Ac trans Ci fib]
+7.2 +6.2 93 +6 +6 1013.1 959.0
00 12.09 ЮЗ 1 500 м туман {ливн. осадки} 9/4 600 м
[Cb cap Ac lent Ci]
+6.5 +5.8 95 +5 +6 1013.4 959.2 +5.1 5
03 12.09 ЮЗ 1 20 км {туман} 3/1 600 м
[Cb cap Ac lent Ci]
+13.4 +7.4 67 +14 +20 1012.7 959.8
06 12.09 С 2 20 км 8/8 1000 м
[Cu med, cong Ac lent]
+16.4 +6.9 53 +17 +18 1011.2 958.9
09 12.09 СЗ 2 50 км 6/4 600 м
[Cb cap Ac lent Ci]
+16.3 +5.0 47 +17 +18 1010.3 958.0
12 12.09 СЗ 7-12
{16}
10 км ливневой дождь 10/10 600 м
[Cb cap]
+7.8 +5.7 87 +3 +3 1015.9 961.8 +17.4 3
15 12.09 ЮЗ 2
{12}
н/о в посл. час ливневой дождь 8/8 600 м
[Cb cap]
+6.1 +4.9 92 +4 +4 1019.4 964.8
18 12.09 ЮЗ 2 н/о {ливн. осадки} 10/4 600 м
[Cb cap Ac trans]
+5.6 +4.2 91 +3 +3 1019.8 965.1
21 12.09 ЮВ 1 н/о 10/0
[Ac As]
+4.5 +3.4 93 +3 +3 1018.9 964.0
00 13.09 В 2 20 км 10/5 600 м
[Cb cap Ac trans Ci ing]
+3.9 +3.0 94 +1 +1 1018.7 963.7 +3.0 5
03 13.09 Ю 4 20 км 9/9 600 м
[Cb cap]
+9.7 +4.3 69 +7 +8 1015.9 962.2
06 13.09 З 1 20 км 9/9 600 м
[Cb cap]
+13.1 +2.9 50 +14 +15 1013.0 960.1
09 13.09 В 1 20 км 10/6 600 м
[Cb cap Ci ing]
+14.3 -0.1 37 +15 +16 1010.9 958.2
12 13.09 СВ 1 20 км 9/6 600 м
[Cb cap Ac lent Ci sp]
+10.3 +3.7 64 +10 +10 1010.8 957.4 +14.8
15 13.09 СВ 1 н/о 6/3 600 м
[Cb cap Ci]
+6.3 +3.6 83 +5 +5 1011.6 957.4
18 13.09 СВ 1 н/о 3/1 600 м
[Cb cap Ac lent Ci]
+2.7 +1.2 90 +1 +1 1012.0 957.1
21 13.09 З 1 н/о 4/1 600 м
[Cb cap Ac cast Ci]
+0.5 -0.4 94 -2 -2 1011.7 956.4
00 14.09 С 1 200 м туман ?/? +1.5 +0.8 95 -1 -1 1011.9 956.8 -0.2
03 14.09 СЗ 2 20 км {туман} 10/10 600 м
[Cb cap]
+6.1 +2.7 79 +4 +4 1014.6 960.2
06 14.09 СЗ 5 50 км {ливн. осадки, туман} 8/8 1000 м
[Cu med, cong]
+7.3 +0.5 62 +4 +5 1015.7 961.4
09 14.09 СЗ 3 50 км 10/10 600 м
[Cb cap]
+7.4 -0.7 56 +5 +5 1017.1 962.8
12 14.09 СЗ 3 20 км 10/10 600 м
[Cb cap]
+6.0 -3.8 49 +3 +3 1020.3 965.6 +7.6 0.0
15 14.09 СЗ 2 н/о 10/5 600 м
[Cb cap Ac trans]
+4.3 -2.9 59 +2 +2 1022.9 967.7
18 14.09 З 1 н/о 10/10 600 м
[Cb cap]
+2.2 -1.0 79 +1 +1 1023.2 967.6
21 14.09 В 2 н/о 10/6 600 м
[Cb cap Ac trans]
+0.1 -1.6 88 -4 -4 1022.4 966.4
00 15.09 СВ 2 50 км 10/1 600 м
[Cb cap Ac trans Ci fib]
+0.1 -1.7 88 -4 -3 1021.2 965.3 -0.9
09 16.09 З 5
{10}
50 км {ливн. осадки} 9/9 600 м
[Cb cap]
+9.8 +2.4 60 +7 +7 1018.9 965.0

 

Местоположение метеостанции Хомутово (Иркутская область, Россия): широта 52.46 долгота 104.30 высота над уровнем моря 454 м.

В архиве по умолчанию представлена погода в Хомутово за последнюю неделю. Архивные данные за месяц целиком и за предыдущие месяцы, начиная с января 2011 года, Вы можете получить, выбрав интересующий диапазон дат из раскрывающегося списка и нажав кнопку "Ввод!".


*Определитесь, кто Вы:
робот инопланетянин человек

Внимание! Время в таблицах - всемирное. Для получения местного времени необходимо прибавить поправку, которая равна 8 ч.

Смотрите также архив погоды в соседних городах и на ближайших метеорологических станциях:

Погода в Иркутске (Иркутская область, Россия) (21 км)
Погода в Иркутске аэропорт (Иркутская область, Россия) (21 км)
Погода в Ангарск (Иркутская область, Россия) (34 км)
Погода в Усть-Ордынском (Иркутская область, Россия) (47 км)
Погода в Большом Голоустном (Иркутская область, Россия) (89 км)
Погода в Байкальске (Иркутская область, Россия) (91 км)
Погода в Култуке (Иркутская область, Россия) (92 км)
Погода в Баяндае (Иркутская область, Россия) (108 км)
Погода в Хамар-Дабан (Иркутская область, Россия) (114 км)
Погода в Танхое (Бурятия, Россия) (115 км)

Пояснения к столбцам:

Ветер - указаны скорость ветра в м/с - средняя за 10 мин, порывы в срок и между сроками (в фигурных скобках) и направление, откуда дует ветер: С - северный, СВ - северо-восточный, В - восточный, ЮВ - юго-восточный, Ю - южный, ЮЗ - юго-западный, З - западный, СЗ - северо-западный.
Видимость - горизонтальная дальность видимости в метрах или километрах. При видимости от 1 до 10 км при отсутствии осадков обычно наблюдается дымка, при ухудшении видимости до 1 км и менее - туман. В сухую погоду видимость может ухудшаться дымом, пылью или мглою.
Явления - указаны атмосферные явления, наблюдавшиеся в срок или в последний час перед сроком; фигурными скобками обозначены явления, наблюдавшиеся между сроками (за 1-3 часа до срока); квадратными скобками обозначены град или гололедные отложения с указанием их диаметра в мм.
Облачность - указаны через наклонную черту общая и нижняя облачность в баллах и высота нижней границы облаков в метрах; квадратными скобками обозначены формы облаков: Ci - перистые, Cs - перисто-слоистые, Cc - перисто-кучевые, Ac - высококучевые, As - высокослоистые, Sc - слоисто-кучевые, Ns - слоисто-дождевые, Cu - кучевые, Cb - кучево-дождевые. Подробнее классификацию облаков см. в Атласе облаков (PDF).
T - Температура воздуха - температура, измеренная на высоте 2 м над землей.
Td - Температура точки росы - температура, при понижении до которой содержащийся в воздухе водяной пар достигнет насыщения.
f - Относительная влажность воздуха - влажноcть воздуха, измеренная на высоте 2 м над землей.
Te - Эффективная температура - температура, которую ощущает одетый по сезону человек в тени. Характеристика душности погоды. При расчете учитывается влияние влажности воздуха и скорости ветра на теплоощущения человека.
Tes - Эффективная температура на солнце - температура, которую ощущает человек, с поправкой на солнечный нагрев. Характеристика знойности погоды. Зависит от высоты солнца над горизонтом, облачности и скорости ветра. Ночью, в пасмурную погоду, а также при ветре 12 м/с и более поправка равна нулю.
P - Атмосферное давление - приведенное к уровню моря атмосферное давление.
Po - Атмосферное давление - измеренное на уровне метеостанции атмосферное давление.
Tmin - Минимальная температура - минимум температуры воздуха на высоте 2 м над землей.
Tmax - Максимальная температура - максимум температуры воздуха на высоте 2 м над землей.
R - Количество осадков - Количество выпавших осадков за период времени, мм. При наведении курсора мыши на число - период времени, за который выпало указанное количество осадков.
R24 - Количество осадков - Количество выпавших осадков за 24 часа, мм.
S - Снежный покров - Высота снежного покрова, см. При наведении курсора мыши на число - состояние снежного покрова и степень покрытия местности в баллах.